Regional Weather Roundup
Issued by NWS Memphis, TN

Home | Current Version | Previous Version | Text Only | Print | Product List | Glossary On
Versions: 1 2 3 4 5 6 7 8 9 10 11 12 13 14 15 16 17 18 19 20 21 22 23 24 25 26 27 28 29 30 31 32 33 34 35 36 37 38 39 40 41 42 43 44 45 46 47 48 49 50
000
ASUS44 KMEG 270810
RWRMEG
MEMPHIS CWA HOURLY WEATHER ROUNDUP
NATIONAL WEATHER SERVICE MEMPHIS TN
300 AM CDT TUE SEP 27 2016

...WEST TENNESSEE...

CITY           SKY/WX    TMP DP  RH WIND       PRES   REMARKS
MEMPHIS INTL   MOCLDY    61  54  77 N5        30.06F
NWS MEMPHIS      N/A     56 N/A N/A MISG        N/A
JACKSON          N/A    N/A N/A N/A MISG      30.07F
BOLIVAR        FOG       54  54 100 CALM      30.06F VSB 1
LEXINGTON      CLEAR     54  54 100 N5        30.06F
DYERSBURG      CLEAR    N/A N/A N/A MISG        N/A
UNION CITY       N/A     48  48 100 CALM      30.07F VSB 1/2
PARIS          CLEAR     46  46 100 CALM      30.08F
HUNTINGDON     CLEAR     52  52 100 CALM      30.06F


...EASTERN ARKANSAS...

CITY           SKY/WX    TMP DP  RH WIND       PRES   REMARKS
JONESBORO      CLEAR     58  46  64 N6        30.09S
WEST MEMPHIS   CLOUDY    56  54  93 CALM      30.07S
BATESVILLE     CLOUDY    52  48  87 NW5       30.12S
NEWPORT        CLOUDY    53  50  89 NW6         N/A
WALNUT RIDGE   PTCLDY    54  46  76 NW5       30.09F
BLYTHEVILLE    CLEAR     53  51  93 N5        30.08F
STUTTGART      PTCLDY    57  52  82 N6        30.09S
PINE BLUFF     CLOUDY    61  56  83 N5        30.07F
MONTICELLO     MOCLDY    62  55  77 CALM      30.06S


...NORTH MISSISSIPPI...

CITY           SKY/WX    TMP DP  RH WIND       PRES   REMARKS
TUPELO         CLOUDY    65  58  78 N9        30.03F
OXFORD         CLOUDY    59  54  82 NE5       30.07F
BATESVILLE     PTCLDY    60  53  78 CALM      30.06F
TUNICA         PTCLDY    55  54  94 N5        30.08S
CLARKSDALE       N/A     59  59 100 N5        30.07R
CORINTH        CLOUDY    57  55  94 CALM      30.05S
GREENWOOD      PTCLDY    65  59  81 N3        30.03F
COLUMBUS       CLOUDY    67  60  78 N9        30.00S
STARKVILLE     CLOUDY    64  59  82 N5        30.02F
GOLDEN TRIANGL CLOUDY    66  55  68 N8        30.01S


...SOUTHEAST MISSOURI...

CITY           SKY/WX    TMP DP  RH WIND       PRES   REMARKS
KENNETT        CLEAR     57  52  82 N6        30.07F
WEST PLAINS    CLEAR     49  43  80 CALM      30.14F
POPLAR BLUFF   CLEAR     52  49  89 NW5       30.09F
CAPE GIRARDEAU FOG       47  45  93 W3        30.08F VSB 1/2


...NORTHWEST ALABAMA...

CITY           SKY/WX    TMP DP  RH WIND       PRES   REMARKS
MUSCLE SHOALS  PTCLDY    65  57  75 VRB6      30.04F


...MIDDLE TENNESSEE...

CITY           SKY/WX    TMP DP  RH WIND       PRES   REMARKS
NASHVILLE      CLEAR     58  54  86 NW5       30.08S
CLARKSVILLE    CLEAR     50  48  93 CALM      30.07F FOG
COLUMBIA       PTCLDY   N/A N/A N/A CALM      30.05F


...WESTERN KENTUCKY...

CITY           SKY/WX    TMP DP  RH WIND       PRES   REMARKS
PADUCAH        FOG       48  46  93 CALM      30.07S VSB 1
FORT CAMPBELL  CLEAR     54  53  95 CALM      30.07S


...CENTRAL ARKANSAS...

CITY           SKY/WX    TMP DP  RH WIND       PRES   REMARKS
LITTLE ROCK    CLOUDY    62  53  72 NW5       30.09F


SKY/WX REPORTED AS FAIR MEANS FEW OR NO CLOUDS BELOW
12 THOUSAND FEET.




USA.gov is the U.S. government's official web portal to all federal, state and local government web resources and services.